Hodhod

operational
NORAD ID: 61777 Int'l Des: NNA 2024-199 Owner: OMID/ISRC Country: IR
LEOCIRCULARRETROGRADESSO

About Hodhod

Description loading...

Live Position

Loading 3D Globe...

Upcoming Passes

Altitude History

Altitude vs Time

uPlot chart will show altitude changes over time

Two-Line Element Set

1 61777U 24199AU 25339.32778532 .00026656 00000-0 71405-3 0 9997
2 61777 97.3249 206.4347 0014320 261.9206 98.0414 15.37881066104316
Epoch: Dec 5, 2025 • Age: 16 hours

Current Status

Altitude 475.5 km
Velocity 7.63 km/s
Sub-Earth Point 81.82°N, 71.48°E
Launch Date Nov 4, 2024
Age 1 years
Type other

Technical Details

Classification Payload
Mass 4.00 kg
Dry Mass 4.00 kg
Total Mass 4.00 kg
Length 0.30 m
Diameter 0.10 m
Span 0.30 m
Shape Box
Manufacturer OMID
Bus Type Cubesat 3U
Phase Status In Orbit
Owner/State OMID/ISRC/IR

Large Constellations

Loading constellations...